Location: Unspecified
(0.0000°N, 0.0000°E)
Time: 19:05:28
(UTC+00:00)

Vanguard 1 Rocket - All Passes

Search period start: 18 April 2019 00:00
Search period end: 28 April 2019 00:00
Orbit: 651 x 4225 km, 34.3° (Epoch: 17 April)

Date Brightness Start Highest point End Pass type
(mag) Time Alt. Az. Time Alt. Az. Time Alt. Az.
18 Apr - 04:04:58 10° SSW 04:13:25 30° SE 04:27:36 10° E visible
18 Apr - 06:28:11 10° SW 06:41:34 88° NW 07:06:13 10° NE daylight
18 Apr - 08:57:15 10° W 09:15:15 41° NNW 09:39:08 10° NE daylight
18 Apr - 11:37:14 10° NW 11:55:10 22° N 12:11:20 10° NE daylight
18 Apr - 14:20:10 10° NNW 14:35:25 22° N 14:45:50 10° NE daylight
18 Apr - 16:53:34 10° NW 17:08:09 46° NNE 17:15:49 10° E daylight
18 Apr - 19:25:48 10° WNW 19:34:38 40° SW 19:39:52 10° SSE visible
19 Apr - 02:57:13 10° SSE 03:01:21 13° SE 03:06:35 10° ESE visible
19 Apr - 05:17:20 10° SW 05:28:15 65° SE 05:49:27 10° ENE visible
19 Apr - 07:43:31 10° WSW 07:59:10 54° NNW 08:24:07 10° NE daylight
19 Apr - 10:18:09 10° WNW 10:36:38 27° NNW 10:56:28 10° NNE daylight
19 Apr - 13:02:00 10° NW 13:18:28 20° N 13:31:04 10° NE daylight
19 Apr - 15:38:26 10° NW 15:54:35 33° NNE 16:03:52 10° E daylight
19 Apr - 18:10:43 10° NW 18:23:31 82° SW 18:30:01 10° SE visible
20 Apr - 04:07:22 10° SSW 04:16:00 38° SE 04:31:37 10° ENE visible
20 Apr - 06:31:17 10° WSW 06:44:20 73° NW 07:08:29 10° NE daylight
20 Apr - 09:01:35 10° W 09:18:56 34° NNW 09:41:28 10° NE daylight
20 Apr - 11:42:31 10° NW 12:00:04 21° N 12:15:33 10° NE daylight
20 Apr - 14:22:29 10° NW 14:39:40 27° NNE 14:50:44 10° ENE daylight
20 Apr - 16:55:38 10° NW 17:11:28 62° NNE 17:19:22 10° ESE daylight
20 Apr - 19:29:32 10° W 19:37:18 27° SW 19:42:18 10° SSE visible
21 Apr - 02:58:38 10° S 03:04:16 19° SE 03:12:24 10° E visible
21 Apr - 05:20:09 10° SW 05:30:51 80° SE 05:52:10 10° NE visible
21 Apr - 07:47:17 10° W 08:02:28 45° NNW 08:26:12 10° NE daylight
21 Apr - 10:23:27 10° WNW 10:41:10 24° NNW 10:59:46 10° NE daylight
21 Apr - 13:05:24 10° NW 13:23:09 23° N 13:36:12 10° NE daylight
21 Apr - 15:40:19 10° NW 15:58:13 43° NNE 16:07:52 10° E daylight
21 Apr - 18:13:34 10° WNW 18:26:19 59° SW 18:32:55 10° SE visible
22 Apr - 04:09:54 10° SSW 04:18:32 50° SE 04:35:06 10° ENE visible
22 Apr - 06:34:37 10° WSW 06:47:21 60° NNW 07:10:35 10° NE daylight
22 Apr - 09:06:19 10° WNW 09:22:58 29° NNW 09:44:01 10° NE daylight
22 Apr - 11:47:12 10° NW 12:05:03 21° N 12:20:20 10° NE daylight
22 Apr - 14:24:34 10° NW 14:43:39 33° NNE 14:55:15 10° E daylight
22 Apr - 16:57:55 10° NW 17:14:33 82° NE 17:22:39 10° ESE daylight
22 Apr - 19:33:53 10° W 19:40:01 19° SW 19:44:22 10° S visible
23 Apr - 03:00:38 10° S 03:06:59 25° SE 03:17:09 10° E visible
23 Apr - 05:23:10 10° WSW 05:33:35 83° NW 05:54:35 10° NE visible
23 Apr - 07:51:23 10° W 08:06:04 37° NNW 08:28:19 10° NE daylight
23 Apr - 10:28:44 10° NW 10:46:01 22° N 11:03:40 10° NE daylight
23 Apr - 13:08:13 10° NW 13:27:35 27° NNE 13:41:12 10° ENE daylight
23 Apr - 15:42:17 10° NW 16:01:37 56° NNE 16:11:32 10° ESE daylight
23 Apr - 18:16:47 10° WNW 18:28:58 43° SW 18:35:37 10° SSE visible
24 Apr - 04:12:38 10° SW 04:21:06 65° SE 04:38:10 10° ENE visible
24 Apr - 06:38:14 10° W 06:50:38 48° NNW 07:12:35 10° NE daylight
24 Apr - 09:11:21 10° WNW 09:27:20 25° NNW 09:46:58 10° NE daylight
24 Apr - 11:51:10 10° NW 12:09:54 23° N 12:25:27 10° NE daylight
24 Apr - 14:26:33 10° NW 14:47:22 41° NNE 14:59:25 10° E daylight
24 Apr - 17:00:25 10° WNW 17:17:24 77° SW 17:25:41 10° SE daylight
24 Apr - 19:39:23 10° WSW 19:42:48 12° SW 19:45:38 10° SSW visible
25 Apr - 03:02:57 10° SSW 03:09:35 34° SE 03:21:13 10° ENE visible
25 Apr - 05:26:24 10° WSW 05:36:33 66° NNW 05:56:47 10° NE visible
25 Apr - 07:55:51 10° WNW 08:09:59 30° NNW 08:30:34 10° NE daylight
25 Apr - 10:33:40 10° NW 10:51:00 22° N 11:08:14 10° NE daylight
25 Apr - 13:10:39 10° NW 13:31:42 32° NNE 13:45:55 10° ENE daylight
25 Apr - 15:44:22 10° NW 16:04:46 71° NE 16:14:56 10° ESE daylight
25 Apr - 18:20:27 10° WNW 18:31:33 31° SW 18:38:05 10° SSE visible
26 Apr - 01:54:51 10° SSE 01:58:25 14° SE 02:02:58 10° ESE visible
26 Apr - 04:15:32 10° SW 04:23:49 84° SE 04:40:52 10° NE visible
26 Apr - 06:42:09 10° W 06:54:09 39° NNW 07:14:34 10° NE daylight
26 Apr - 09:16:31 10° NW 09:32:02 23° N 09:50:27 10° NE daylight
26 Apr - 11:54:28 10° NW 12:14:30 26° NNE 12:30:36 10° ENE daylight
26 Apr - 14:28:32 10° NW 14:50:49 51° NNE 15:03:14 10° ESE daylight
26 Apr - 17:03:14 10° WNW 17:20:04 60° SW 17:28:32 10° SE daylight
27 Apr - 03:05:30 10° SSW 03:12:11 47° SE 03:24:43 10° ENE visible
27 Apr - 05:29:52 10° WSW 05:39:47 52° NNW 05:58:50 10° NE visible
27 Apr - 08:00:40 10° WNW 08:14:11 26° NNW 08:33:07 10° NE daylight
27 Apr - 10:38:02 10° NW 10:55:58 23° N 11:13:18 10° NE daylight
27 Apr - 13:12:51 10° NW 13:35:31 39° NNE 13:50:16 10° E daylight
27 Apr - 15:46:38 10° NW 16:07:40 88° NE 16:18:06 10° SE daylight
27 Apr - 18:24:42 10° W 18:34:11 23° SW 18:40:18 10° S visible
